GFSFLT2_prec_precacc12_012.txt.gz
Total_Precipitation_Accumulation
0.00 0.00 0.02 0.03 0.03 0.05 0.05 0.03 0.03 0.07 0.12 0.12 0.10 0.12 0.17 0.20 0.22 0.25 0.30 0.31 0.28 0.25 0.26 0.29 0.30 0.34 0.48
0.00 0.00 0.00 0.01 0.02 0.03 0.04 0.06 0.05 0.04 0.08 0.09 0.09 0.11 0.13 0.14 0.15 0.18 0.24 0.30 0.37 0.44 0.45 0.41 0.35 0.37 0.44
0.02 0.00 0.01 0.01 0.02 0.03 0.03 0.04 0.04 0.07 0.11 0.13 0.13 0.13 0.11 0.12 0.16 0.21 0.26 0.32 0.38 0.41 0.47 0.58 0.65 0.62 0.48
0.04 0.02 0.01 0.01 0.03 0.03 0.04 0.04 0.04 0.03 0.06 0.12 0.13 0.14 0.13 0.16 0.19 0.24 0.27 0.32 0.45 0.50 0.54 0.57 0.59 0.59 0.57
0.04 0.03 0.02 0.03 0.04 0.04 0.05 0.04 0.03 0.03 0.06 0.10 0.10 0.09 0.08 0.16 0.25 0.28 0.30 0.33 0.43 0.59 0.68 0.75 0.80 0.80 0.83
0.04 0.03 0.02 0.02 0.02 0.08 0.12 0.14 0.10 0.02 0.03 0.04 0.05 0.06 0.08 0.15 0.22 0.22 0.26 0.35 0.41 0.47 0.51 0.49 0.49 0.54 0.60
0.04 0.05 0.06 0.07 0.17 0.23 0.15 0.10 0.06 0.02 0.05 0.07 0.07 0.09 0.12 0.15 0.23 0.28 0.34 0.41 0.48 0.50 0.46 0.45 0.48 0.48 0.46
0.03 0.08 0.16 0.18 0.15 0.09 0.06 0.07 0.05 0.04 0.08 0.15 0.08 0.09 0.08 0.15 0.30 0.22 0.27 0.32 0.38 0.42 0.42 0.38 0.38 0.49 0.51
0.08 0.08 0.04 0.02 0.03 0.13 0.18 0.19 0.13 0.04 0.05 0.13 0.11 0.11 0.11 0.17 0.33 0.34 0.30 0.33 0.37 0.35 0.32 0.31 0.35 0.35 0.44
0.01 0.00 0.01 0.02 0.06 0.13 0.29 0.43 0.24 0.18 0.07 0.19 0.15 0.14 0.20 0.17 0.33 0.42 0.40 0.41 0.36 0.34 0.30 0.28 0.28 0.28 0.28
0.00 0.00 0.00 0.01 0.03 0.06 0.15 0.38 0.38 0.24 0.10 0.35 0.29 0.17 0.26 0.23 0.37 0.46 0.43 0.41 0.33 0.35 0.37 0.32 0.26 0.20 0.23
0.02 0.01 0.01 0.01 0.01 0.03 0.07 0.14 0.24 0.29 0.15 0.22 0.30 0.18 0.26 0.37 0.43 0.48 0.47 0.40 0.28 0.25 0.22 0.28 0.32 0.27 0.27
0.05 0.03 0.02 0.02 0.02 0.04 0.10 0.16 0.19 0.23 0.25 0.26 0.31 0.38 0.45 0.42 0.36 0.38 0.46 0.49 0.38 0.26 0.27 0.22 0.18 0.18 0.22
0.11 0.04 0.02 0.03 0.04 0.10 0.20 0.23 0.25 0.25 0.28 0.34 0.39 0.39 0.34 0.33 0.32 0.32 0.37 0.42 0.40 0.31 0.22 0.23 0.19 0.17 0.11
0.08 0.07 0.05 0.05 0.07 0.16 0.29 0.37 0.36 0.34 0.36 0.35 0.27 0.25 0.26 0.25 0.29 0.30 0.27 0.31 0.33 0.24 0.14 0.15 0.14 0.08 0.05
0.09 0.09 0.11 0.12 0.15 0.21 0.36 0.44 0.42 0.39 0.39 0.33 0.25 0.20 0.20 0.20 0.23 0.24 0.23 0.24 0.26 0.20 0.11 0.07 0.11 0.09 0.05
0.19 0.18 0.17 0.16 0.22 0.30 0.40 0.41 0.42 0.39 0.28 0.16 0.11 0.12 0.15 0.13 0.14 0.14 0.12 0.15 0.13 0.11 0.09 0.05 0.05 0.07 0.03

GFSFLT2_prec_precacc12_015.txt.gz
Total_Precipitation_Accumulation
0.00 0.00 0.00 0.00 0.00 0.00 0.01 0.01 0.00 0.00 0.01 0.02 0.04 0.07 0.13 0.17 0.20 0.24 0.28 0.27 0.25 0.24 0.24 0.29 0.35 0.40 0.54
0.00 0.00 0.00 0.00 0.00 0.00 0.01 0.02 0.02 0.01 0.02 0.02 0.03 0.03 0.04 0.06 0.12 0.15 0.19 0.25 0.32 0.39 0.41 0.39 0.35 0.40 0.49
0.01 0.00 0.01 0.00 0.01 0.01 0.01 0.02 0.02 0.03 0.04 0.04 0.02 0.02 0.02 0.03 0.08 0.13 0.17 0.19 0.21 0.24 0.30 0.41 0.51 0.57 0.46
0.04 0.02 0.01 0.00 0.01 0.01 0.01 0.02 0.03 0.02 0.02 0.02 0.02 0.02 0.02 0.03 0.05 0.04 0.05 0.07 0.13 0.23 0.29 0.40 0.46 0.50 0.53
0.06 0.05 0.02 0.00 0.00 0.01 0.03 0.03 0.02 0.02 0.03 0.02 0.02 0.02 0.01 0.01 0.00 0.02 0.07 0.08 0.12 0.23 0.37 0.52 0.66 0.74 0.81
0.08 0.04 0.02 0.01 0.01 0.06 0.11 0.13 0.09 0.01 0.03 0.02 0.01 0.01 0.00 0.00 0.00 0.02 0.06 0.10 0.14 0.19 0.29 0.36 0.41 0.49 0.57
0.04 0.05 0.05 0.07 0.17 0.24 0.15 0.09 0.04 0.01 0.04 0.04 0.02 0.02 0.01 0.00 0.02 0.03 0.06 0.10 0.17 0.25 0.28 0.33 0.40 0.42 0.43
0.03 0.08 0.16 0.18 0.16 0.09 0.06 0.07 0.06 0.03 0.06 0.15 0.05 0.03 0.01 0.01 0.05 0.07 0.11 0.16 0.22 0.27 0.28 0.26 0.31 0.45 0.49
0.06 0.06 0.03 0.01 0.02 0.13 0.20 0.19 0.13 0.03 0.03 0.13 0.06 0.04 0.02 0.01 0.08 0.16 0.16 0.15 0.16 0.17 0.21 0.26 0.33 0.35 0.44
0.01 0.00 0.00 0.00 0.02 0.11 0.29 0.42 0.20 0.12 0.02 0.18 0.08 0.08 0.13 0.04 0.12 0.18 0.19 0.25 0.26 0.27 0.26 0.27 0.28 0.28 0.28
0.00 0.00 0.00 0.01 0.03 0.06 0.15 0.36 0.36 0.19 0.02 0.24 0.22 0.09 0.16 0.12 0.17 0.23 0.24 0.36 0.37 0.39 0.38 0.33 0.27 0.21 0.23
0.02 0.02 0.02 0.02 0.01 0.02 0.05 0.09 0.16 0.22 0.07 0.14 0.29 0.12 0.16 0.19 0.21 0.29 0.39 0.49 0.41 0.32 0.24 0.30 0.38 0.35 0.34
0.04 0.02 0.02 0.01 0.01 0.01 0.02 0.02 0.04 0.07 0.09 0.14 0.23 0.20 0.27 0.25 0.21 0.28 0.44 0.60 0.54 0.35 0.32 0.26 0.23 0.21 0.27
0.07 0.03 0.02 0.01 0.02 0.05 0.10 0.07 0.13 0.14 0.16 0.19 0.22 0.26 0.25 0.25 0.27 0.31 0.38 0.48 0.56 0.46 0.34 0.36 0.35 0.30 0.16
0.06 0.06 0.05 0.04 0.04 0.07 0.17 0.22 0.29 0.26 0.23 0.23 0.21 0.21 0.29 0.28 0.31 0.32 0.29 0.38 0.50 0.43 0.25 0.27 0.33 0.33 0.25
0.08 0.09 0.12 0.11 0.12 0.14 0.26 0.32 0.31 0.28 0.27 0.26 0.22 0.19 0.23 0.25 0.27 0.29 0.28 0.33 0.40 0.31 0.18 0.13 0.23 0.25 0.18
0.16 0.17 0.17 0.15 0.18 0.24 0.29 0.31 0.30 0.27 0.22 0.15 0.14 0.17 0.21 0.18 0.20 0.21 0.19 0.27 0.23 0.17 0.12 0.07 0.11 0.17 0.11

GFSFLT2_prec_precacc12_018.txt.gz
Total_Precipitation_Accumulation
0.00 0.00 0.00 0.00 0.00 0.00 0.00 0.00 0.00 0.00 0.00 0.00 0.00 0.01 0.02 0.02 0.02 0.08 0.15 0.19 0.20 0.19 0.20 0.24 0.30 0.38 0.51
0.01 0.00 0.00 0.00 0.00 0.00 0.00 0.00 0.00 0.00 0.00 0.00 0.02 0.02 0.01 0.01 0.01 0.02 0.03 0.09 0.23 0.34 0.38 0.35 0.30 0.35 0.46
0.02 0.00 0.00 0.00 0.00 0.00 0.00 0.00 0.00 0.00 0.00 0.00 0.01 0.02 0.02 0.01 0.01 0.01 0.02 0.03 0.06 0.13 0.21 0.31 0.42 0.44 0.35
0.04 0.03 0.01 0.01 0.01 0.00 0.00 0.00 0.00 0.00 0.01 0.01 0.01 0.02 0.02 0.03 0.03 0.03 0.02 0.01 0.01 0.02 0.04 0.11 0.21 0.30 0.36
0.08 0.08 0.05 0.02 0.00 0.00 0.02 0.02 0.01 0.02 0.02 0.01 0.02 0.02 0.02 0.01 0.00 0.00 0.01 0.01 0.02 0.02 0.02 0.05 0.09 0.22 0.47
0.13 0.08 0.02 0.01 0.01 0.03 0.09 0.12 0.10 0.01 0.02 0.01 0.01 0.01 0.00 0.00 0.01 0.02 0.02 0.01 0.01 0.01 0.01 0.03 0.08 0.15 0.27
0.04 0.05 0.05 0.04 0.12 0.24 0.16 0.09 0.04 0.01 0.03 0.03 0.02 0.02 0.01 0.01 0.01 0.01 0.02 0.02 0.02 0.02 0.02 0.04 0.09 0.17 0.21
0.02 0.05 0.10 0.14 0.15 0.09 0.05 0.06 0.04 0.02 0.05 0.15 0.05 0.03 0.01 0.01 0.02 0.02 0.05 0.09 0.10 0.08 0.09 0.08 0.10 0.24 0.31
0.02 0.02 0.01 0.01 0.01 0.07 0.14 0.15 0.11 0.02 0.02 0.13 0.06 0.04 0.01 0.00 0.00 0.05 0.11 0.08 0.04 0.02 0.04 0.08 0.15 0.19 0.31
0.00 0.00 0.00 0.00 0.01 0.04 0.18 0.35 0.18 0.11 0.02 0.18 0.08 0.07 0.15 0.01 0.01 0.02 0.04 0.07 0.08 0.10 0.09 0.12 0.15 0.17 0.21
0.00 0.00 0.00 0.01 0.02 0.04 0.11 0.30 0.34 0.19 0.02 0.22 0.22 0.06 0.13 0.05 0.02 0.04 0.08 0.18 0.25 0.32 0.34 0.24 0.19 0.17 0.20
0.01 0.01 0.02 0.02 0.01 0.02 0.04 0.06 0.12 0.19 0.07 0.11 0.28 0.09 0.15 0.09 0.05 0.07 0.16 0.32 0.39 0.49 0.35 0.29 0.35 0.34 0.34
0.04 0.03 0.01 0.01 0.01 0.01 0.02 0.01 0.02 0.03 0.06 0.11 0.22 0.15 0.14 0.09 0.06 0.08 0.26 0.46 0.56 0.48 0.32 0.29 0.23 0.20 0.28
0.08 0.04 0.01 0.01 0.02 0.04 0.11 0.06 0.11 0.07 0.11 0.12 0.11 0.13 0.12 0.10 0.12 0.14 0.24 0.39 0.53 0.48 0.39 0.44 0.47 0.34 0.17
0.07 0.06 0.04 0.03 0.04 0.05 0.14 0.18 0.26 0.21 0.16 0.13 0.12 0.14 0.20 0.21 0.19 0.21 0.21 0.36 0.54 0.56 0.39 0.40 0.52 0.53 0.37
0.08 0.08 0.12 0.12 0.12 0.10 0.19 0.25 0.23 0.20 0.19 0.18 0.15 0.14 0.19 0.23 0.25 0.27 0.29 0.39 0.47 0.43 0.34 0.22 0.41 0.59 0.46
0.14 0.15 0.15 0.13 0.15 0.19 0.20 0.20 0.18 0.15 0.13 0.10 0.12 0.17 0.20 0.18 0.22 0.28 0.24 0.34 0.29 0.23 0.19 0.16 0.22 0.38 0.34

GFSFLT2_prec_precacc12_021.txt.gz
Total_Precipitation_Accumulation
0.00 0.00 0.00 0.00 0.00 0.00 0.00 0.00 0.00 0.00 0.00 0.00 0.00 0.00 0.00 0.00 0.01 0.02 0.02 0.04 0.05 0.06 0.08 0.14 0.22 0.31 0.47
0.00 0.00 0.00 0.00 0.00 0.00 0.00 0.00 0.00 0.00 0.00 0.00 0.00 0.00 0.00 0.00 0.01 0.01 0.01 0.02 0.03 0.06 0.09 0.14 0.18 0.24 0.36
0.02 0.00 0.00 0.00 0.00 0.00 0.00 0.00 0.00 0.00 0.00 0.00 0.00 0.01 0.01 0.01 0.01 0.01 0.02 0.03 0.05 0.06 0.06 0.07 0.08 0.12 0.16
0.07 0.05 0.02 0.01 0.02 0.01 0.00 0.00 0.00 0.00 0.00 0.01 0.01 0.02 0.02 0.02 0.03 0.02 0.01 0.01 0.01 0.01 0.02 0.03 0.03 0.03 0.08
0.12 0.10 0.06 0.02 0.00 0.00 0.02 0.01 0.00 0.01 0.02 0.01 0.01 0.01 0.01 0.00 0.00 0.00 0.01 0.02 0.05 0.06 0.06 0.05 0.04 0.03 0.03
0.15 0.08 0.02 0.01 0.01 0.03 0.05 0.07 0.09 0.01 0.02 0.01 0.00 0.00 0.00 0.00 0.01 0.03 0.04 0.04 0.04 0.04 0.03 0.02 0.02 0.01 0.01
0.03 0.03 0.03 0.02 0.07 0.10 0.10 0.10 0.04 0.00 0.03 0.03 0.01 0.02 0.01 0.01 0.02 0.01 0.02 0.02 0.02 0.03 0.03 0.02 0.02 0.01 0.01
0.01 0.02 0.04 0.04 0.05 0.05 0.05 0.05 0.04 0.02 0.03 0.12 0.03 0.02 0.01 0.01 0.01 0.03 0.05 0.10 0.14 0.14 0.12 0.08 0.04 0.03 0.03
0.03 0.02 0.00 0.00 0.01 0.06 0.13 0.13 0.09 0.02 0.02 0.11 0.05 0.04 0.01 0.00 0.00 0.05 0.12 0.10 0.05 0.02 0.01 0.01 0.01 0.01 0.02
0.00 0.00 0.00 0.00 0.01 0.02 0.11 0.29 0.14 0.09 0.01 0.17 0.09 0.07 0.17 0.02 0.01 0.01 0.03 0.04 0.04 0.03 0.02 0.02 0.02 0.01 0.00
0.00 0.00 0.00 0.01 0.01 0.01 0.04 0.22 0.32 0.20 0.02 0.22 0.26 0.07 0.15 0.05 0.01 0.01 0.05 0.14 0.23 0.28 0.24 0.10 0.06 0.04 0.03
0.01 0.01 0.01 0.02 0.01 0.01 0.01 0.03 0.10 0.21 0.09 0.14 0.32 0.12 0.18 0.09 0.02 0.01 0.07 0.31 0.49 0.65 0.69 0.26 0.21 0.20 0.21
0.05 0.02 0.02 0.02 0.02 0.02 0.02 0.01 0.02 0.02 0.07 0.14 0.24 0.15 0.12 0.07 0.03 0.03 0.18 0.33 0.49 0.51 0.43 0.41 0.18 0.14 0.21
0.08 0.04 0.02 0.02 0.04 0.05 0.12 0.05 0.11 0.06 0.09 0.11 0.12 0.11 0.08 0.05 0.09 0.09 0.21 0.35 0.43 0.39 0.33 0.47 0.54 0.33 0.16
0.08 0.07 0.04 0.04 0.04 0.05 0.13 0.17 0.24 0.19 0.14 0.11 0.09 0.09 0.14 0.15 0.13 0.14 0.16 0.31 0.48 0.54 0.40 0.46 0.61 0.63 0.42
0.08 0.09 0.12 0.13 0.12 0.09 0.17 0.22 0.20 0.16 0.16 0.15 0.11 0.10 0.13 0.16 0.18 0.22 0.25 0.37 0.49 0.45 0.38 0.25 0.55 0.78 0.56
0.13 0.14 0.14 0.12 0.13 0.17 0.18 0.16 0.13 0.11 0.09 0.09 0.11 0.15 0.18 0.16 0.19 0.33 0.30 0.39 0.38 0.31 0.30 0.24 0.38 0.59 0.47

GFSFLT2_prec_precacc12_024.txt.gz
Total_Precipitation_Accumulation
0.00 0.00 0.00 0.00 0.00 0.00 0.00 0.00 0.00 0.00 0.01 0.01 0.01 0.01 0.00 0.01 0.01 0.01 0.02 0.03 0.04 0.05 0.07 0.09 0.13 0.14 0.15
0.00 0.00 0.00 0.00 0.00 0.00 0.00 0.00 0.01 0.00 0.00 0.00 0.00 0.00 0.00 0.00 0.00 0.01 0.02 0.03 0.03 0.04 0.06 0.08 0.09 0.12 0.15
0.01 0.00 0.00 0.00 0.01 0.00 0.00 0.00 0.00 0.00 0.00 0.00 0.00 0.00 0.01 0.01 0.03 0.03 0.03 0.04 0.05 0.06 0.06 0.06 0.06 0.07 0.07
0.08 0.05 0.03 0.02 0.02 0.01 0.00 0.00 0.00 0.00 0.00 0.00 0.01 0.01 0.02 0.03 0.02 0.02 0.01 0.01 0.01 0.02 0.03 0.04 0.04 0.04 0.04
0.13 0.13 0.09 0.02 0.00 0.00 0.01 0.01 0.01 0.01 0.01 0.01 0.01 0.01 0.00 0.00 0.00 0.00 0.01 0.02 0.06 0.09 0.10 0.09 0.08 0.07 0.05
0.23 0.08 0.01 0.00 0.01 0.03 0.08 0.08 0.05 0.00 0.01 0.00 0.00 0.00 0.00 0.00 0.01 0.03 0.04 0.04 0.04 0.04 0.05 0.05 0.05 0.04 0.03
0.02 0.01 0.02 0.03 0.11 0.13 0.08 0.06 0.03 0.00 0.02 0.02 0.01 0.01 0.01 0.01 0.01 0.01 0.02 0.02 0.03 0.04 0.04 0.04 0.03 0.02 0.02
0.01 0.02 0.05 0.05 0.04 0.03 0.02 0.04 0.03 0.01 0.02 0.08 0.02 0.01 0.00 0.00 0.00 0.01 0.03 0.09 0.15 0.17 0.15 0.12 0.08 0.05 0.04
0.04 0.02 0.01 0.00 0.01 0.05 0.12 0.11 0.07 0.01 0.01 0.08 0.04 0.01 0.00 0.00 0.00 0.05 0.12 0.11 0.06 0.04 0.04 0.04 0.05 0.04 0.03
0.00 0.00 0.00 0.00 0.01 0.02 0.10 0.26 0.12 0.08 0.01 0.14 0.08 0.04 0.16 0.02 0.01 0.01 0.02 0.03 0.04 0.04 0.03 0.03 0.03 0.01 0.00
0.00 0.00 0.00 0.00 0.01 0.01 0.04 0.22 0.32 0.20 0.01 0.19 0.26 0.06 0.14 0.06 0.01 0.01 0.01 0.10 0.23 0.31 0.29 0.14 0.07 0.04 0.01
0.01 0.01 0.01 0.01 0.01 0.01 0.02 0.04 0.10 0.23 0.09 0.14 0.34 0.15 0.20 0.09 0.02 0.00 0.01 0.23 0.60 0.80 0.90 0.39 0.20 0.13 0.11
0.04 0.02 0.02 0.02 0.02 0.02 0.02 0.01 0.02 0.03 0.06 0.14 0.26 0.18 0.12 0.06 0.02 0.01 0.09 0.19 0.47 0.61 0.60 0.61 0.28 0.08 0.08
0.07 0.03 0.02 0.02 0.04 0.06 0.13 0.05 0.10 0.04 0.06 0.09 0.12 0.11 0.06 0.02 0.05 0.09 0.16 0.27 0.32 0.39 0.40 0.51 0.53 0.25 0.09
0.08 0.07 0.03 0.03 0.04 0.05 0.13 0.16 0.21 0.15 0.08 0.06 0.05 0.04 0.07 0.10 0.10 0.12 0.16 0.24 0.43 0.55 0.43 0.50 0.63 0.63 0.39
0.06 0.07 0.11 0.11 0.10 0.07 0.13 0.18 0.16 0.12 0.12 0.10 0.07 0.04 0.07 0.10 0.15 0.23 0.25 0.33 0.50 0.47 0.45 0.33 0.62 0.83 0.57
0.10 0.13 0.12 0.09 0.09 0.11 0.12 0.12 0.09 0.07 0.07 0.08 0.12 0.14 0.13 0.11 0.12 0.33 0.34 0.39 0.39 0.30 0.32 0.27 0.45 0.65 0.49

GFSFLT2_prec_precacc12_030.txt.gz
Total_Precipitation_Accumulation
0.00 0.00 0.00 0.00 0.00 0.00 0.00 0.00 0.02 0.04 0.03 0.02 0.01 0.01 0.00 0.01 0.04 0.04 0.05 0.06 0.07 0.08 0.09 0.11 0.11 0.11 0.12
0.00 0.00 0.00 0.00 0.00 0.00 0.01 0.03 0.02 0.00 0.00 0.00 0.00 0.00 0.00 0.01 0.02 0.03 0.03 0.04 0.05 0.06 0.08 0.10 0.10 0.11 0.13
0.01 0.00 0.00 0.00 0.02 0.01 0.00 0.00 0.00 0.00 0.00 0.00 0.00 0.00 0.00 0.01 0.03 0.04 0.06 0.08 0.08 0.09 0.09 0.10 0.10 0.10 0.10
0.08 0.05 0.04 0.05 0.03 0.01 0.00 0.00 0.00 0.00 0.00 0.00 0.01 0.01 0.00 0.00 0.00 0.00 0.00 0.01 0.01 0.01 0.02 0.03 0.04 0.04 0.04
0.14 0.17 0.09 0.00 0.00 0.00 0.01 0.01 0.02 0.01 0.00 0.00 0.00 0.00 0.00 0.00 0.00 0.00 0.01 0.02 0.05 0.08 0.10 0.10 0.11 0.11 0.09
0.21 0.03 0.00 0.00 0.00 0.04 0.11 0.09 0.04 0.00 0.00 0.01 0.00 0.00 0.00 0.00 0.00 0.01 0.03 0.04 0.04 0.05 0.07 0.09 0.09 0.10 0.09
0.00 0.00 0.01 0.04 0.17 0.14 0.05 0.04 0.03 0.00 0.01 0.03 0.00 0.00 0.00 0.00 0.00 0.00 0.01 0.02 0.02 0.03 0.05 0.06 0.06 0.05 0.05
0.01 0.01 0.05 0.06 0.02 0.01 0.03 0.05 0.02 0.00 0.00 0.05 0.00 0.00 0.00 0.00 0.00 0.00 0.00 0.02 0.06 0.11 0.12 0.11 0.09 0.08 0.07
0.05 0.03 0.00 0.00 0.00 0.12 0.13 0.09 0.05 0.00 0.00 0.03 0.02 0.00 0.00 0.00 0.00 0.00 0.01 0.03 0.04 0.04 0.04 0.05 0.07 0.09 0.10
0.00 0.00 0.00 0.00 0.00 0.03 0.14 0.26 0.10 0.07 0.00 0.11 0.06 0.03 0.15 0.01 0.00 0.00 0.00 0.00 0.01 0.03 0.06 0.07 0.07 0.06 0.07
0.00 0.00 0.00 0.00 0.00 0.01 0.05 0.26 0.35 0.21 0.01 0.24 0.24 0.04 0.12 0.04 0.00 0.00 0.00 0.00 0.08 0.17 0.29 0.27 0.24 0.21 0.19
0.00 0.00 0.00 0.01 0.01 0.01 0.02 0.06 0.15 0.32 0.14 0.18 0.34 0.15 0.19 0.08 0.01 0.00 0.00 0.07 0.35 0.54 0.82 0.42 0.28 0.23 0.23
0.02 0.01 0.01 0.02 0.02 0.02 0.01 0.01 0.02 0.04 0.08 0.09 0.19 0.15 0.14 0.13 0.07 0.02 0.10 0.06 0.15 0.41 0.64 0.75 0.62 0.37 0.16
0.04 0.01 0.01 0.02 0.03 0.04 0.07 0.02 0.05 0.01 0.00 0.03 0.11 0.17 0.11 0.05 0.14 0.13 0.13 0.29 0.20 0.31 0.40 0.54 0.51 0.26 0.06
0.04 0.04 0.02 0.02 0.02 0.02 0.06 0.07 0.07 0.06 0.03 0.01 0.00 0.03 0.04 0.07 0.08 0.09 0.20 0.24 0.36 0.38 0.31 0.47 0.44 0.28 0.11
0.02 0.03 0.05 0.05 0.04 0.02 0.04 0.08 0.10 0.05 0.07 0.04 0.03 0.01 0.01 0.01 0.14 0.30 0.29 0.34 0.47 0.40 0.33 0.35 0.42 0.40 0.18
0.04 0.07 0.09 0.04 0.02 0.03 0.03 0.05 0.04 0.05 0.07 0.06 0.07 0.07 0.06 0.05 0.04 0.29 0.44 0.40 0.38 0.32 0.31 0.31 0.43 0.46 0.20

GFSFLT2_prec_precacc12_033.txt.gz
Total_Precipitation_Accumulation
0.00 0.00 0.00 0.00 0.00 0.00 0.00 0.00 0.02 0.04 0.02 0.02 0.01 0.01 0.00 0.01 0.03 0.04 0.05 0.07 0.09 0.11 0.13 0.14 0.15 0.15 0.16
0.00 0.00 0.00 0.00 0.00 0.00 0.01 0.03 0.02 0.00 0.00 0.00 0.00 0.00 0.00 0.01 0.02 0.04 0.05 0.06 0.07 0.08 0.09 0.09 0.08 0.09 0.11
0.00 0.00 0.00 0.00 0.01 0.01 0.00 0.00 0.00 0.00 0.00 0.00 0.00 0.00 0.00 0.01 0.03 0.04 0.06 0.08 0.07 0.07 0.07 0.08 0.10 0.11 0.11
0.06 0.05 0.04 0.04 0.02 0.00 0.00 0.00 0.00 0.00 0.00 0.00 0.00 0.00 0.00 0.00 0.00 0.00 0.00 0.01 0.01 0.01 0.02 0.03 0.03 0.03 0.03
0.14 0.15 0.08 0.00 0.00 0.00 0.00 0.01 0.02 0.01 0.00 0.00 0.00 0.00 0.00 0.00 0.00 0.00 0.00 0.01 0.02 0.04 0.06 0.08 0.10 0.11 0.09
0.19 0.03 0.00 0.00 0.00 0.03 0.11 0.08 0.03 0.00 0.00 0.01 0.00 0.00 0.00 0.00 0.00 0.00 0.01 0.01 0.02 0.03 0.06 0.09 0.10 0.11 0.11
0.00 0.00 0.00 0.03 0.17 0.12 0.03 0.02 0.02 0.00 0.01 0.03 0.00 0.00 0.00 0.00 0.00 0.00 0.00 0.01 0.02 0.03 0.05 0.07 0.07 0.06 0.05
0.00 0.01 0.05 0.06 0.02 0.02 0.04 0.06 0.02 0.00 0.00 0.05 0.00 0.00 0.00 0.00 0.00 0.00 0.00 0.01 0.02 0.04 0.06 0.08 0.08 0.08 0.07
0.04 0.02 0.00 0.00 0.00 0.12 0.11 0.08 0.04 0.00 0.00 0.03 0.01 0.00 0.00 0.00 0.00 0.00 0.00 0.01 0.01 0.02 0.04 0.06 0.08 0.10 0.10
0.00 0.00 0.00 0.00 0.00 0.03 0.13 0.23 0.09 0.06 0.00 0.12 0.05 0.03 0.14 0.01 0.00 0.00 0.00 0.00 0.00 0.02 0.06 0.08 0.08 0.09 0.12
0.00 0.00 0.00 0.00 0.00 0.01 0.05 0.25 0.32 0.18 0.00 0.24 0.21 0.03 0.12 0.04 0.00 0.00 0.00 0.00 0.05 0.11 0.24 0.26 0.27 0.28 0.30
0.00 0.00 0.00 0.01 0.00 0.01 0.02 0.05 0.13 0.30 0.12 0.16 0.31 0.14 0.19 0.07 0.01 0.00 0.00 0.03 0.19 0.27 0.36 0.30 0.27 0.26 0.29
0.01 0.00 0.00 0.01 0.01 0.01 0.00 0.00 0.01 0.03 0.05 0.05 0.18 0.15 0.16 0.17 0.11 0.02 0.10 0.06 0.08 0.27 0.43 0.54 0.63 0.43 0.24
0.03 0.00 0.00 0.00 0.01 0.02 0.04 0.01 0.04 0.00 0.00 0.01 0.11 0.20 0.15 0.07 0.19 0.14 0.08 0.28 0.21 0.30 0.38 0.43 0.41 0.28 0.11
0.02 0.02 0.01 0.01 0.01 0.01 0.04 0.06 0.06 0.04 0.02 0.00 0.00 0.03 0.05 0.07 0.06 0.07 0.17 0.21 0.33 0.32 0.28 0.40 0.29 0.15 0.04
0.01 0.01 0.04 0.03 0.03 0.01 0.03 0.07 0.08 0.04 0.05 0.02 0.02 0.01 0.01 0.01 0.09 0.26 0.24 0.27 0.37 0.32 0.29 0.32 0.24 0.18 0.07
0.02 0.05 0.08 0.04 0.02 0.02 0.02 0.03 0.03 0.03 0.04 0.03 0.05 0.06 0.06 0.04 0.02 0.21 0.41 0.32 0.28 0.27 0.26 0.28 0.30 0.26 0.06

GFSFLT2_prec_precacc12_036.txt.gz
Total_Precipitation_Accumulation
0.00 0.00 0.00 0.00 0.00 0.00 0.00 0.00 0.01 0.04 0.02 0.01 0.00 0.00 0.00 0.01 0.03 0.04 0.05 0.07 0.10 0.12 0.14 0.16 0.17 0.18 0.19
0.00 0.00 0.00 0.00 0.00 0.00 0.01 0.02 0.02 0.00 0.00 0.00 0.00 0.00 0.00 0.01 0.03 0.04 0.04 0.06 0.07 0.09 0.11 0.12 0.11 0.11 0.12
0.00 0.00 0.00 0.00 0.01 0.01 0.00 0.00 0.00 0.00 0.00 0.00 0.00 0.00 0.00 0.01 0.01 0.02 0.05 0.08 0.07 0.07 0.08 0.08 0.09 0.10 0.11
0.04 0.05 0.04 0.03 0.02 0.00 0.00 0.00 0.00 0.00 0.00 0.00 0.00 0.00 0.00 0.00 0.00 0.00 0.00 0.01 0.01 0.01 0.01 0.02 0.03 0.02 0.02
0.15 0.11 0.05 0.00 0.00 0.00 0.00 0.01 0.01 0.01 0.00 0.00 0.00 0.00 0.00 0.00 0.00 0.00 0.00 0.01 0.01 0.02 0.03 0.05 0.08 0.08 0.07
0.11 0.02 0.00 0.00 0.00 0.02 0.07 0.05 0.03 0.00 0.00 0.01 0.00 0.00 0.00 0.00 0.00 0.00 0.01 0.01 0.01 0.03 0.05 0.07 0.08 0.10 0.11
0.00 0.00 0.00 0.03 0.14 0.09 0.03 0.03 0.02 0.00 0.01 0.03 0.00 0.00 0.00 0.00 0.00 0.00 0.00 0.01 0.01 0.02 0.04 0.06 0.06 0.06 0.06
0.00 0.01 0.03 0.05 0.02 0.02 0.04 0.05 0.02 0.00 0.00 0.05 0.00 0.00 0.00 0.00 0.00 0.00 0.00 0.01 0.01 0.02 0.03 0.05 0.06 0.07 0.07
0.03 0.02 0.00 0.00 0.00 0.10 0.08 0.07 0.03 0.00 0.00 0.01 0.01 0.00 0.00 0.00 0.00 0.00 0.00 0.00 0.00 0.01 0.03 0.04 0.05 0.08 0.11
0.00 0.00 0.00 0.00 0.00 0.02 0.10 0.20 0.07 0.06 0.00 0.09 0.04 0.03 0.13 0.01 0.00 0.00 0.00 0.00 0.00 0.01 0.04 0.07 0.08 0.12 0.15
0.00 0.00 0.00 0.00 0.00 0.00 0.03 0.21 0.27 0.15 0.00 0.22 0.18 0.02 0.11 0.03 0.00 0.00 0.00 0.00 0.02 0.04 0.13 0.18 0.23 0.29 0.35
0.00 0.00 0.00 0.00 0.00 0.00 0.01 0.03 0.10 0.25 0.10 0.14 0.29 0.12 0.18 0.07 0.01 0.00 0.00 0.01 0.05 0.12 0.14 0.12 0.18 0.24 0.30
0.01 0.00 0.00 0.00 0.00 0.00 0.00 0.00 0.00 0.02 0.03 0.03 0.15 0.12 0.16 0.19 0.13 0.02 0.09 0.04 0.01 0.12 0.21 0.31 0.51 0.44 0.28
0.01 0.01 0.00 0.00 0.00 0.01 0.02 0.01 0.03 0.00 0.00 0.01 0.07 0.19 0.17 0.07 0.18 0.11 0.05 0.21 0.18 0.22 0.26 0.33 0.37 0.29 0.14
0.01 0.01 0.01 0.00 0.00 0.00 0.02 0.04 0.04 0.02 0.01 0.00 0.00 0.03 0.06 0.06 0.05 0.04 0.11 0.16 0.25 0.25 0.24 0.31 0.21 0.12 0.04
0.01 0.01 0.03 0.02 0.03 0.01 0.01 0.04 0.06 0.02 0.03 0.01 0.01 0.01 0.00 0.00 0.05 0.17 0.15 0.20 0.23 0.22 0.21 0.27 0.14 0.08 0.03
0.02 0.03 0.07 0.04 0.02 0.02 0.01 0.02 0.01 0.01 0.02 0.02 0.03 0.04 0.04 0.02 0.01 0.11 0.30 0.23 0.17 0.19 0.19 0.25 0.23 0.15 0.04

GFSFLT2_prec_precacc12_039.txt.gz
Total_Precipitation_Accumulation
0.00 0.00 0.00 0.00 0.00 0.00 0.00 0.00 0.01 0.03 0.01 0.01 0.00 0.00 0.00 0.00 0.02 0.03 0.05 0.07 0.09 0.12 0.15 0.18 0.19 0.19 0.20
0.00 0.00 0.00 0.00 0.00 0.00 0.00 0.01 0.01 0.00 0.00 0.00 0.00 0.00 0.00 0.01 0.02 0.03 0.04 0.05 0.06 0.08 0.10 0.11 0.11 0.12 0.12
0.00 0.00 0.00 0.00 0.00 0.00 0.00 0.00 0.00 0.00 0.00 0.00 0.00 0.00 0.00 0.01 0.01 0.01 0.03 0.04 0.04 0.05 0.06 0.08 0.09 0.10 0.11
0.03 0.05 0.04 0.02 0.00 0.00 0.00 0.00 0.00 0.00 0.00 0.00 0.00 0.00 0.00 0.00 0.00 0.00 0.00 0.01 0.01 0.01 0.01 0.02 0.03 0.02 0.02
0.14 0.07 0.02 0.00 0.00 0.00 0.00 0.01 0.00 0.00 0.00 0.00 0.00 0.00 0.00 0.00 0.00 0.00 0.00 0.01 0.01 0.02 0.02 0.04 0.06 0.06 0.05
0.05 0.02 0.00 0.00 0.00 0.01 0.05 0.05 0.03 0.00 0.00 0.00 0.00 0.00 0.00 0.00 0.00 0.00 0.00 0.01 0.01 0.02 0.03 0.05 0.06 0.07 0.08
0.01 0.00 0.00 0.02 0.10 0.08 0.03 0.03 0.02 0.00 0.01 0.02 0.00 0.00 0.00 0.00 0.00 0.00 0.00 0.00 0.01 0.01 0.02 0.04 0.05 0.05 0.05
0.00 0.00 0.03 0.04 0.04 0.04 0.03 0.04 0.01 0.00 0.00 0.03 0.00 0.00 0.00 0.00 0.00 0.00 0.00 0.00 0.01 0.01 0.02 0.04 0.05 0.06 0.07
0.02 0.01 0.01 0.00 0.00 0.05 0.05 0.06 0.03 0.00 0.00 0.01 0.00 0.00 0.00 0.00 0.00 0.00 0.00 0.00 0.00 0.01 0.02 0.03 0.05 0.07 0.08
0.01 0.00 0.00 0.00 0.00 0.01 0.05 0.16 0.05 0.06 0.00 0.08 0.03 0.03 0.10 0.00 0.00 0.00 0.00 0.00 0.00 0.00 0.01 0.05 0.07 0.12 0.15
0.00 0.00 0.00 0.00 0.00 0.00 0.01 0.17 0.23 0.13 0.00 0.19 0.16 0.02 0.10 0.02 0.00 0.00 0.00 0.00 0.01 0.00 0.04 0.09 0.14 0.22 0.34
0.00 0.00 0.00 0.00 0.00 0.00 0.00 0.01 0.07 0.18 0.06 0.10 0.27 0.10 0.16 0.07 0.01 0.00 0.00 0.00 0.01 0.03 0.03 0.04 0.06 0.13 0.25
0.01 0.01 0.00 0.01 0.00 0.00 0.01 0.00 0.00 0.01 0.01 0.01 0.12 0.10 0.15 0.18 0.12 0.02 0.07 0.03 0.00 0.03 0.09 0.14 0.23 0.29 0.29
0.01 0.01 0.00 0.00 0.00 0.01 0.02 0.01 0.02 0.00 0.00 0.00 0.04 0.15 0.17 0.07 0.16 0.09 0.04 0.13 0.12 0.13 0.12 0.17 0.22 0.19 0.13
0.02 0.01 0.01 0.01 0.00 0.00 0.02 0.03 0.03 0.01 0.00 0.00 0.00 0.02 0.05 0.05 0.04 0.02 0.06 0.08 0.14 0.15 0.18 0.21 0.12 0.08 0.02
0.01 0.01 0.03 0.02 0.02 0.01 0.01 0.02 0.04 0.01 0.02 0.01 0.01 0.01 0.00 0.00 0.02 0.10 0.08 0.10 0.10 0.11 0.13 0.21 0.09 0.04 0.01
0.02 0.02 0.05 0.04 0.02 0.02 0.01 0.02 0.01 0.01 0.01 0.01 0.02 0.06 0.06 0.01 0.00 0.04 0.17 0.11 0.08 0.12 0.12 0.19 0.18 0.07 0.04

GFSFLT2_prec_precacc12_042.txt.gz
Total_Precipitation_Accumulation
0.00 0.00 0.00 0.00 0.00 0.00 0.00 0.00 0.00 0.00 0.00 0.00 0.00 0.00 0.00 0.00 0.01 0.01 0.02 0.05 0.07 0.09 0.13 0.18 0.20 0.20 0.21
0.00 0.00 0.00 0.00 0.00 0.00 0.00 0.00 0.00 0.00 0.00 0.00 0.00 0.00 0.00 0.00 0.01 0.02 0.03 0.04 0.05 0.07 0.08 0.10 0.10 0.11 0.13
0.00 0.00 0.00 0.00 0.00 0.00 0.00 0.00 0.00 0.00 0.00 0.00 0.00 0.00 0.00 0.00 0.00 0.01 0.01 0.01 0.01 0.02 0.03 0.04 0.06 0.06 0.08
0.03 0.04 0.02 0.01 0.00 0.00 0.00 0.00 0.00 0.00 0.00 0.00 0.00 0.00 0.00 0.00 0.00 0.00 0.00 0.00 0.00 0.01 0.01 0.02 0.02 0.03 0.02
0.10 0.04 0.01 0.00 0.00 0.00 0.00 0.00 0.00 0.00 0.00 0.00 0.00 0.00 0.00 0.00 0.00 0.00 0.00 0.00 0.01 0.01 0.02 0.03 0.04 0.05 0.04
0.05 0.02 0.00 0.00 0.00 0.01 0.03 0.04 0.03 0.00 0.00 0.00 0.00 0.00 0.00 0.00 0.00 0.00 0.00 0.00 0.01 0.01 0.02 0.03 0.05 0.06 0.07
0.02 0.00 0.00 0.01 0.06 0.05 0.03 0.04 0.02 0.00 0.01 0.01 0.00 0.00 0.00 0.00 0.00 0.00 0.00 0.00 0.00 0.01 0.02 0.03 0.04 0.04 0.05
0.00 0.00 0.01 0.03 0.04 0.08 0.04 0.02 0.01 0.00 0.00 0.01 0.00 0.00 0.00 0.00 0.00 0.00 0.00 0.00 0.00 0.01 0.02 0.03 0.05 0.05 0.06
0.01 0.01 0.01 0.00 0.00 0.02 0.03 0.04 0.02 0.00 0.00 0.00 0.00 0.00 0.00 0.00 0.00 0.00 0.00 0.00 0.00 0.01 0.02 0.03 0.04 0.07 0.07
0.00 0.00 0.00 0.00 0.00 0.00 0.03 0.13 0.04 0.05 0.00 0.06 0.03 0.02 0.08 0.00 0.00 0.00 0.00 0.00 0.00 0.00 0.01 0.03 0.06 0.11 0.13
0.00 0.00 0.00 0.00 0.00 0.00 0.01 0.14 0.19 0.10 0.00 0.16 0.16 0.02 0.09 0.02 0.00 0.00 0.00 0.00 0.01 0.00 0.00 0.02 0.06 0.15 0.27
0.00 0.00 0.00 0.00 0.00 0.00 0.00 0.01 0.04 0.12 0.04 0.07 0.25 0.09 0.16 0.07 0.01 0.00 0.00 0.00 0.01 0.01 0.01 0.01 0.03 0.06 0.13
0.01 0.00 0.00 0.00 0.00 0.00 0.00 0.00 0.00 0.00 0.00 0.01 0.10 0.10 0.15 0.16 0.10 0.01 0.03 0.02 0.00 0.01 0.05 0.05 0.10 0.12 0.17
0.01 0.01 0.00 0.00 0.00 0.00 0.02 0.01 0.02 0.00 0.00 0.00 0.02 0.12 0.17 0.06 0.10 0.05 0.01 0.07 0.07 0.07 0.07 0.08 0.10 0.10 0.11
0.02 0.02 0.01 0.00 0.00 0.00 0.01 0.03 0.04 0.01 0.00 0.00 0.00 0.01 0.03 0.03 0.05 0.01 0.01 0.03 0.06 0.09 0.13 0.13 0.03 0.03 0.01
0.02 0.02 0.03 0.02 0.02 0.01 0.01 0.03 0.04 0.01 0.01 0.00 0.01 0.02 0.00 0.00 0.02 0.05 0.03 0.02 0.03 0.06 0.10 0.15 0.06 0.01 0.01
0.03 0.02 0.04 0.04 0.02 0.02 0.01 0.02 0.01 0.00 0.01 0.01 0.03 0.07 0.09 0.02 0.00 0.01 0.11 0.04 0.03 0.07 0.09 0.13 0.13 0.04 0.04

GFSFLT2_prec_precacc12_045.txt.gz
Total_Precipitation_Accumulation
0.00 0.00 0.00 0.00 0.00 0.00 0.00 0.00 0.00 0.00 0.00 0.00 0.00 0.00 0.00 0.00 0.01 0.00 0.01 0.02 0.04 0.05 0.09 0.16 0.18 0.19 0.20
0.00 0.00 0.00 0.00 0.00 0.00 0.00 0.00 0.00 0.00 0.00 0.00 0.00 0.00 0.00 0.00 0.01 0.01 0.01 0.02 0.03 0.04 0.06 0.07 0.08 0.11 0.15
0.00 0.00 0.00 0.00 0.00 0.00 0.00 0.00 0.00 0.00 0.00 0.00 0.00 0.00 0.00 0.00 0.00 0.00 0.01 0.01 0.00 0.01 0.01 0.02 0.03 0.04 0.05
0.01 0.02 0.01 0.01 0.00 0.00 0.00 0.00 0.00 0.00 0.00 0.00 0.00 0.00 0.00 0.00 0.00 0.00 0.00 0.00 0.00 0.01 0.01 0.01 0.02 0.03 0.03
0.05 0.04 0.01 0.00 0.00 0.00 0.00 0.00 0.00 0.00 0.00 0.00 0.00 0.00 0.00 0.00 0.00 0.00 0.00 0.00 0.00 0.01 0.02 0.03 0.04 0.05 0.04
0.05 0.03 0.01 0.00 0.00 0.00 0.02 0.03 0.03 0.00 0.00 0.00 0.00 0.00 0.00 0.00 0.00 0.00 0.00 0.00 0.01 0.01 0.01 0.02 0.04 0.05 0.06
0.02 0.00 0.00 0.00 0.02 0.04 0.04 0.05 0.03 0.00 0.00 0.00 0.00 0.00 0.00 0.00 0.00 0.00 0.00 0.00 0.00 0.01 0.01 0.02 0.03 0.04 0.05
0.00 0.00 0.00 0.01 0.04 0.10 0.06 0.02 0.00 0.00 0.00 0.01 0.00 0.00 0.00 0.00 0.00 0.00 0.00 0.00 0.00 0.00 0.01 0.02 0.04 0.04 0.05
0.00 0.01 0.01 0.00 0.00 0.01 0.01 0.03 0.02 0.00 0.00 0.00 0.00 0.00 0.00 0.00 0.00 0.00 0.00 0.00 0.00 0.00 0.01 0.02 0.03 0.06 0.07
0.00 0.00 0.00 0.00 0.00 0.00 0.01 0.11 0.04 0.04 0.00 0.05 0.03 0.02 0.07 0.00 0.00 0.00 0.00 0.00 0.00 0.00 0.00 0.01 0.03 0.07 0.08
0.00 0.00 0.00 0.00 0.00 0.00 0.00 0.10 0.16 0.08 0.00 0.13 0.16 0.02 0.09 0.02 0.00 0.00 0.00 0.00 0.00 0.00 0.00 0.00 0.02 0.07 0.17
0.00 0.00 0.00 0.00 0.00 0.00 0.00 0.00 0.03 0.07 0.01 0.05 0.25 0.08 0.15 0.07 0.01 0.00 0.00 0.00 0.00 0.01 0.01 0.01 0.02 0.03 0.06
0.00 0.00 0.00 0.00 0.00 0.00 0.00 0.00 0.00 0.00 0.00 0.00 0.08 0.09 0.14 0.13 0.06 0.01 0.00 0.00 0.00 0.00 0.02 0.02 0.06 0.06 0.09
0.00 0.01 0.00 0.00 0.00 0.00 0.02 0.01 0.02 0.00 0.00 0.00 0.00 0.08 0.15 0.05 0.05 0.03 0.00 0.02 0.02 0.02 0.02 0.03 0.04 0.04 0.04
0.01 0.02 0.00 0.00 0.00 0.00 0.01 0.04 0.05 0.01 0.00 0.00 0.00 0.01 0.02 0.03 0.06 0.01 0.00 0.00 0.01 0.03 0.07 0.07 0.01 0.01 0.01
0.02 0.01 0.03 0.02 0.02 0.01 0.01 0.03 0.04 0.01 0.01 0.00 0.01 0.03 0.01 0.00 0.02 0.04 0.03 0.00 0.00 0.02 0.05 0.12 0.04 0.01 0.01
0.03 0.02 0.03 0.04 0.02 0.02 0.01 0.02 0.02 0.00 0.00 0.01 0.03 0.09 0.11 0.02 0.00 0.00 0.08 0.03 0.02 0.02 0.03 0.08 0.10 0.03 0.03

GFSFLT2_prec_precacc12_048.txt.gz
Total_Precipitation_Accumulation
0.00 0.00 0.00 0.00 0.00 0.00 0.00 0.00 0.00 0.00 0.00 0.00 0.00 0.00 0.00 0.00 0.00 0.00 0.01 0.02 0.03 0.04 0.07 0.16 0.18 0.18 0.18
0.00 0.00 0.00 0.00 0.00 0.00 0.00 0.00 0.00 0.00 0.00 0.00 0.00 0.00 0.00 0.00 0.00 0.01 0.01 0.01 0.02 0.02 0.03 0.04 0.05 0.09 0.15
0.00 0.00 0.00 0.00 0.00 0.00 0.00 0.00 0.00 0.00 0.00 0.00 0.00 0.00 0.00 0.00 0.00 0.00 0.00 0.00 0.00 0.00 0.00 0.01 0.02 0.03 0.05
0.00 0.00 0.01 0.01 0.00 0.00 0.00 0.00 0.00 0.00 0.00 0.00 0.00 0.00 0.00 0.00 0.00 0.00 0.00 0.00 0.00 0.01 0.01 0.01 0.03 0.04 0.04
0.01 0.02 0.01 0.00 0.00 0.00 0.00 0.00 0.00 0.00 0.00 0.00 0.00 0.00 0.00 0.00 0.00 0.00 0.00 0.00 0.00 0.01 0.01 0.02 0.03 0.05 0.06
0.03 0.02 0.01 0.00 0.00 0.00 0.00 0.02 0.02 0.00 0.00 0.00 0.00 0.00 0.00 0.00 0.00 0.00 0.00 0.00 0.00 0.01 0.01 0.02 0.03 0.04 0.05
0.01 0.00 0.00 0.00 0.00 0.02 0.04 0.06 0.03 0.00 0.00 0.00 0.00 0.00 0.00 0.00 0.00 0.00 0.00 0.00 0.00 0.00 0.01 0.01 0.02 0.03 0.04
0.00 0.00 0.00 0.00 0.03 0.13 0.07 0.01 0.00 0.00 0.00 0.01 0.00 0.00 0.00 0.00 0.00 0.00 0.00 0.00 0.00 0.00 0.01 0.01 0.02 0.03 0.04
0.00 0.00 0.01 0.01 0.00 0.00 0.00 0.02 0.01 0.00 0.00 0.00 0.00 0.00 0.00 0.00 0.00 0.00 0.00 0.00 0.00 0.00 0.00 0.01 0.02 0.04 0.04
0.00 0.00 0.00 0.00 0.00 0.00 0.00 0.08 0.04 0.04 0.00 0.04 0.03 0.01 0.06 0.00 0.00 0.00 0.00 0.00 0.00 0.00 0.00 0.00 0.02 0.04 0.04
0.00 0.00 0.00 0.00 0.00 0.00 0.00 0.07 0.13 0.08 0.00 0.12 0.17 0.02 0.10 0.02 0.00 0.00 0.00 0.00 0.00 0.00 0.00 0.00 0.01 0.05 0.11
0.00 0.00 0.00 0.00 0.00 0.00 0.00 0.00 0.01 0.05 0.01 0.04 0.25 0.07 0.15 0.07 0.00 0.00 0.00 0.00 0.00 0.00 0.00 0.01 0.02 0.03 0.04
0.00 0.00 0.00 0.00 0.00 0.00 0.00 0.00 0.00 0.00 0.00 0.00 0.06 0.07 0.13 0.12 0.05 0.01 0.00 0.00 0.00 0.00 0.00 0.00 0.01 0.02 0.04
0.00 0.00 0.00 0.00 0.00 0.00 0.01 0.01 0.02 0.00 0.00 0.00 0.00 0.04 0.13 0.06 0.06 0.04 0.00 0.01 0.00 0.00 0.01 0.00 0.00 0.00 0.00
0.01 0.02 0.01 0.00 0.00 0.00 0.01 0.03 0.05 0.01 0.00 0.00 0.00 0.00 0.01 0.03 0.07 0.01 0.00 0.00 0.00 0.00 0.02 0.04 0.00 0.00 0.01
0.02 0.01 0.03 0.02 0.02 0.01 0.01 0.04 0.04 0.01 0.01 0.00 0.00 0.03 0.01 0.00 0.02 0.05 0.04 0.00 0.00 0.00 0.01 0.08 0.04 0.00 0.00
0.02 0.01 0.03 0.04 0.02 0.02 0.01 0.02 0.02 0.00 0.00 0.00 0.03 0.11 0.14 0.02 0.00 0.00 0.11 0.07 0.01 0.02 0.00 0.03 0.05 0.01 0.02

GFSFLT2_prec_precacc12_051.txt.gz
Total_Precipitation_Accumulation
0.00 0.00 0.00 0.00 0.00 0.00 0.00 0.00 0.00 0.00 0.00 0.00 0.00 0.00 0.00 0.00 0.00 0.00 0.01 0.02 0.03 0.04 0.06 0.14 0.16 0.17 0.17
0.00 0.00 0.00 0.00 0.00 0.00 0.00 0.00 0.00 0.00 0.00 0.00 0.00 0.00 0.00 0.00 0.00 0.01 0.02 0.02 0.02 0.01 0.01 0.02 0.03 0.06 0.12
0.00 0.00 0.00 0.00 0.00 0.00 0.00 0.00 0.00 0.00 0.00 0.00 0.00 0.00 0.00 0.01 0.00 0.00 0.00 0.00 0.00 0.00 0.00 0.00 0.01 0.03 0.04
0.00 0.00 0.00 0.00 0.00 0.00 0.00 0.00 0.00 0.00 0.00 0.00 0.00 0.00 0.00 0.00 0.00 0.00 0.00 0.00 0.00 0.01 0.01 0.01 0.03 0.04 0.05
0.00 0.00 0.00 0.00 0.00 0.00 0.00 0.00 0.00 0.00 0.00 0.00 0.00 0.00 0.00 0.00 0.00 0.00 0.00 0.00 0.01 0.01 0.02 0.02 0.03 0.05 0.06
0.01 0.01 0.00 0.00 0.00 0.00 0.00 0.00 0.02 0.00 0.00 0.00 0.00 0.00 0.00 0.00 0.00 0.00 0.00 0.00 0.01 0.01 0.01 0.02 0.03 0.05 0.06
0.01 0.00 0.00 0.00 0.00 0.01 0.03 0.06 0.03 0.00 0.00 0.00 0.00 0.00 0.00 0.00 0.00 0.00 0.00 0.00 0.00 0.01 0.01 0.01 0.02 0.03 0.04
0.00 0.00 0.00 0.00 0.02 0.12 0.07 0.01 0.00 0.00 0.00 0.01 0.00 0.00 0.00 0.00 0.00 0.00 0.00 0.00 0.00 0.00 0.00 0.00 0.01 0.01 0.03
0.00 0.00 0.00 0.00 0.00 0.00 0.00 0.01 0.01 0.00 0.00 0.00 0.00 0.00 0.00 0.00 0.00 0.00 0.00 0.00 0.00 0.00 0.00 0.00 0.00 0.01 0.02
0.00 0.00 0.00 0.00 0.00 0.00 0.00 0.05 0.04 0.04 0.00 0.04 0.02 0.01 0.05 0.00 0.00 0.00 0.00 0.00 0.00 0.00 0.00 0.00 0.00 0.01 0.01
0.00 0.00 0.00 0.00 0.00 0.00 0.00 0.04 0.10 0.07 0.00 0.13 0.17 0.02 0.09 0.02 0.00 0.00 0.00 0.00 0.00 0.00 0.00 0.00 0.00 0.02 0.04
0.00 0.00 0.00 0.00 0.00 0.00 0.00 0.00 0.01 0.04 0.00 0.04 0.25 0.06 0.14 0.07 0.01 0.00 0.00 0.00 0.00 0.00 0.00 0.00 0.00 0.01 0.01
0.00 0.00 0.00 0.00 0.00 0.00 0.00 0.00 0.00 0.00 0.00 0.00 0.07 0.07 0.13 0.11 0.04 0.01 0.00 0.00 0.00 0.00 0.00 0.00 0.00 0.00 0.00
0.00 0.00 0.00 0.00 0.00 0.00 0.01 0.01 0.02 0.00 0.00 0.00 0.00 0.04 0.11 0.05 0.05 0.05 0.00 0.01 0.00 0.00 0.00 0.00 0.00 0.00 0.00
0.01 0.01 0.00 0.00 0.00 0.00 0.00 0.03 0.05 0.01 0.00 0.00 0.00 0.00 0.00 0.02 0.07 0.01 0.00 0.00 0.00 0.00 0.01 0.02 0.00 0.00 0.00
0.01 0.01 0.02 0.02 0.01 0.01 0.01 0.04 0.04 0.01 0.00 0.00 0.00 0.03 0.01 0.00 0.03 0.06 0.04 0.00 0.00 0.00 0.00 0.06 0.03 0.00 0.00
0.02 0.01 0.02 0.03 0.01 0.01 0.01 0.02 0.02 0.00 0.00 0.00 0.04 0.13 0.14 0.02 0.00 0.01 0.18 0.12 0.03 0.03 0.00 0.01 0.02 0.00 0.00

GFSFLT2_prec_precacc12_054.txt.gz
Total_Precipitation_Accumulation
0.00 0.00 0.00 0.00 0.00 0.00 0.00 0.00 0.00 0.00 0.00 0.00 0.00 0.00 0.00 0.00 0.00 0.00 0.01 0.02 0.04 0.04 0.06 0.12 0.15 0.15 0.15
0.00 0.00 0.00 0.00 0.00 0.00 0.00 0.00 0.00 0.00 0.00 0.00 0.00 0.00 0.00 0.00 0.00 0.01 0.02 0.03 0.02 0.01 0.01 0.02 0.03 0.05 0.09
0.00 0.00 0.00 0.00 0.00 0.00 0.00 0.00 0.00 0.00 0.00 0.00 0.00 0.00 0.00 0.01 0.01 0.00 0.00 0.00 0.00 0.00 0.00 0.00 0.01 0.02 0.03
0.00 0.00 0.00 0.00 0.00 0.00 0.00 0.00 0.00 0.00 0.00 0.00 0.00 0.00 0.00 0.00 0.00 0.00 0.00 0.00 0.00 0.01 0.01 0.01 0.03 0.04 0.04
0.00 0.00 0.00 0.00 0.00 0.00 0.00 0.00 0.00 0.00 0.00 0.00 0.00 0.00 0.00 0.00 0.00 0.00 0.00 0.00 0.01 0.01 0.02 0.02 0.03 0.05 0.06
0.00 0.00 0.00 0.00 0.00 0.00 0.00 0.00 0.01 0.00 0.00 0.00 0.00 0.00 0.00 0.00 0.00 0.00 0.00 0.00 0.01 0.01 0.01 0.02 0.03 0.05 0.06
0.00 0.00 0.00 0.00 0.00 0.01 0.03 0.05 0.03 0.00 0.00 0.00 0.00 0.00 0.00 0.00 0.00 0.00 0.00 0.00 0.00 0.01 0.01 0.01 0.02 0.03 0.05
0.00 0.00 0.00 0.00 0.01 0.09 0.05 0.01 0.00 0.00 0.00 0.01 0.00 0.00 0.00 0.00 0.00 0.00 0.00 0.00 0.00 0.00 0.01 0.01 0.01 0.01 0.02
0.00 0.00 0.01 0.00 0.00 0.00 0.00 0.00 0.01 0.00 0.00 0.00 0.00 0.00 0.00 0.00 0.00 0.00 0.00 0.00 0.00 0.00 0.00 0.00 0.00 0.01 0.01
0.00 0.00 0.00 0.00 0.00 0.00 0.00 0.03 0.03 0.05 0.00 0.03 0.01 0.01 0.04 0.00 0.00 0.00 0.00 0.00 0.00 0.00 0.00 0.00 0.00 0.00 0.00
0.00 0.00 0.00 0.00 0.00 0.00 0.00 0.02 0.07 0.07 0.00 0.12 0.15 0.01 0.08 0.02 0.00 0.00 0.00 0.00 0.00 0.00 0.00 0.00 0.00 0.00 0.00
0.00 0.00 0.00 0.00 0.00 0.00 0.00 0.00 0.01 0.03 0.00 0.05 0.24 0.04 0.13 0.07 0.00 0.00 0.00 0.00 0.00 0.00 0.00 0.00 0.00 0.00 0.01
0.00 0.00 0.00 0.00 0.00 0.00 0.00 0.00 0.00 0.00 0.00 0.00 0.06 0.05 0.11 0.10 0.04 0.01 0.00 0.00 0.00 0.00 0.00 0.00 0.00 0.00 0.00
0.00 0.00 0.00 0.00 0.00 0.00 0.01 0.00 0.01 0.00 0.00 0.00 0.00 0.03 0.09 0.05 0.05 0.05 0.00 0.00 0.00 0.00 0.00 0.00 0.00 0.00 0.00
0.00 0.01 0.00 0.00 0.00 0.00 0.00 0.02 0.04 0.00 0.00 0.00 0.00 0.00 0.01 0.02 0.06 0.01 0.00 0.00 0.00 0.00 0.01 0.02 0.00 0.00 0.00
0.01 0.01 0.02 0.01 0.01 0.01 0.01 0.04 0.03 0.01 0.00 0.00 0.00 0.02 0.01 0.00 0.02 0.05 0.04 0.00 0.00 0.00 0.00 0.06 0.03 0.00 0.00
0.01 0.01 0.02 0.03 0.01 0.01 0.01 0.02 0.02 0.00 0.00 0.00 0.04 0.13 0.14 0.02 0.00 0.02 0.27 0.17 0.04 0.04 0.00 0.01 0.02 0.00 0.00